When you browse on this site, cookies collect data to enhance your experience and personalize the content and advertising you see.
Visit our Privacy Policy to learn more. By continuing to use the site, you agree to this use of cookies and data.
  • Em Portugal
  • Lista de países
  • Para 7 dias
  • Temperatura da água
  • Mapas de satélite
  • Mapa do tempo
  • Widgets de tempo
  • user-avatar
    Iniciar Sessão

    Previsão horária em Mbandaka

    Hoje, 23 Maio, Quinta-feira

    Tempo Temperatura Precipitação Vento Pressão Humidade
    00:00 +26°C° 0 mm 1 m/s 731 mmHg 82%
    01:00 +26°C° 0 mm 1 m/s 731 mmHg 84%
    02:00 +26°C° 0 mm 1 m/s 731 mmHg 85%
    03:00 +25°C° 0 mm 1 m/s 731 mmHg 86%
    04:00 +25°C° 0 mm 1 m/s 730 mmHg 87%
    05:00 +26°C° 0 mm 1 m/s 731 mmHg 85%
    06:00 +24°C° 0 mm 0 m/s 731 mmHg 83%
    07:00 +25°C° 0 mm 0 m/s 732 mmHg 81%
    08:00 +27°C° 0 mm 0 m/s 732 mmHg 72%
    09:00 +30°C° 0 mm 1 m/s 732 mmHg 64%
    10:00 +32°C° 0 mm 1 m/s 733 mmHg 55%
    11:00 +33°C° 0 mm 1 m/s 732 mmHg 51%
    12:00 +34°C° 0 mm 1 m/s 731 mmHg 48%
    13:00 +35°C° 0 mm 2 m/s 731 mmHg 44%
    14:00 +34°C° 0 mm 1 m/s 730 mmHg 44%
    15:00 +34°C° 0 mm 1 m/s 730 mmHg 43%
    16:00 +34°C° 0 mm 1 m/s 729 mmHg 43%
    17:00 +32°C° 0 mm 1 m/s 730 mmHg 50%
    18:00 +30°C° 0 mm 1 m/s 730 mmHg 58%
    19:00 +26°C° 0 mm 0 m/s 730 mmHg 65%
    20:00 +25°C° 0 mm 0 m/s 730 mmHg 67%
    21:00 +25°C° 0 mm 0 m/s 730 mmHg 68%
    22:00 +24°C° 0 mm 0 m/s 731 mmHg 70%
    23:00 +24°C° 0 mm 0 m/s 731 mmHg 71%

    Amanhã, 24 Maio, Sexta-feira

    Tempo Temperatura Precipitação Vento Pressão Humidade
    00:00 +24°C° 0 mm 0 m/s 731 mmHg 71%
    01:00 +24°C° 0 mm 0 m/s 730 mmHg 72%
    02:00 +23°C° 0 mm 0 m/s 730 mmHg 74%
    03:00 +23°C° 0 mm 0 m/s 730 mmHg 76%
    04:00 +23°C° 0 mm 0 m/s 730 mmHg 78%
    05:00 +23°C° 0 mm 0 m/s 730 mmHg 77%
    06:00 +24°C° 0 mm 0 m/s 731 mmHg 75%
    07:00 +25°C° 0 mm 0 m/s 731 mmHg 74%
    08:00 +28°C° 0 mm 0 m/s 732 mmHg 65%
    09:00 +32°C° 0 mm 1 m/s 732 mmHg 57%
    10:00 +35°C° 0 mm 1 m/s 732 mmHg 48%
    11:00 +35°C° 0.1 mm 1 m/s 731 mmHg 48%
    12:00 +35°C° 0.1 mm 1 m/s 731 mmHg 47%
    13:00 +35°C° 0.1 mm 1 m/s 730 mmHg 47%
    14:00 +35°C° 0 mm 1 m/s 729 mmHg 47%
    15:00 +35°C° 0 mm 1 m/s 729 mmHg 48%
    16:00 +35°C° 0 mm 1 m/s 729 mmHg 49%
    17:00 +33°C° 0 mm 1 m/s 729 mmHg 55%
    18:00 +31°C° 0 mm 1 m/s 729 mmHg 62%
    19:00 +27°C° 0 mm 0 m/s 729 mmHg 68%
    20:00 +26°C° 0 mm 0 m/s 730 mmHg 70%
    21:00 +26°C° 0 mm 0 m/s 730 mmHg 72%
    22:00 +25°C° 0 mm 0 m/s 730 mmHg 74%
    23:00 +25°C° 0 mm 0 m/s 730 mmHg 76%

    Depois de amanhã, 25 Maio, Sábado

    Tempo Temperatura Precipitação Vento Pressão Humidade
    00:00 +25°C° 0 mm 0 m/s 730 mmHg 77%
    01:00 +24°C° 0 mm 0 m/s 729 mmHg 79%
    02:00 +24°C° 0 mm 0 m/s 729 mmHg 80%
    03:00 +24°C° 0 mm 0 m/s 729 mmHg 81%
    04:00 +24°C° 0 mm 0 m/s 729 mmHg 82%
    05:00 +24°C° 0 mm 0 m/s 729 mmHg 80%
    06:00 +25°C° 0 mm 0 m/s 730 mmHg 77%
    07:00 +26°C° 0 mm 0 m/s 730 mmHg 75%
    08:00 +31°C° 0 mm 1 m/s 731 mmHg 65%
    09:00 +33°C° 0 mm 1 m/s 732 mmHg 54%
    10:00 +37°C° 0 mm 2 m/s 732 mmHg 44%
    11:00 +38°C° 0 mm 2 m/s 731 mmHg 41%
    12:00 +39°C° 0 mm 2 m/s 730 mmHg 39%
    13:00 +39°C° 0 mm 2 m/s 729 mmHg 36%
    14:00 +37°C° 0 mm 1 m/s 729 mmHg 41%
    15:00 +36°C° 0 mm 1 m/s 728 mmHg 46%
    16:00 +33°C° 0 mm 0 m/s 728 mmHg 51%
    17:00 +31°C° 0 mm 0 m/s 728 mmHg 54%
    18:00 +30°C° 0 mm 0 m/s 728 mmHg 58%
    19:00 +29°C° 0 mm 0 m/s 729 mmHg 62%
    20:00 +30°C° 0 mm 1 m/s 729 mmHg 66%
    21:00 +29°C° 0 mm 1 m/s 729 mmHg 71%
    22:00 +28°C° 0 mm 1 m/s 730 mmHg 75%
    23:00 +27°C° 1.5 mm 1 m/s 729 mmHg 81%

    26 Maio, Domingo

    Tempo Temperatura Precipitação Vento Pressão Humidade
    00:00 +26°C° 1.5 mm 1 m/s 729 mmHg 87%
    01:00 +25°C° 1.5 mm 1 m/s 729 mmHg 94%
    02:00 +25°C° 0.8 mm 1 m/s 729 mmHg 95%
    03:00 +25°C° 0.8 mm 1 m/s 729 mmHg 96%
    04:00 +23°C° 0.8 mm 0 m/s 729 mmHg 97%
    05:00 +23°C° 0 mm 0 m/s 729 mmHg 95%
    06:00 +24°C° 0 mm 0 m/s 730 mmHg 94%
    07:00 +24°C° 0 mm 0 m/s 731 mmHg 92%
    08:00 +26°C° 1.6 mm 0 m/s 731 mmHg 88%
    09:00 +27°C° 1.6 mm 0 m/s 731 mmHg 84%
    10:00 +31°C° 1.6 mm 1 m/s 731 mmHg 80%
    11:00 +31°C° 0.8 mm 1 m/s 731 mmHg 75%
    12:00 +31°C° 0.8 mm 1 m/s 730 mmHg 70%
    13:00 +32°C° 0.8 mm 2 m/s 730 mmHg 66%
    14:00 +32°C° 0.4 mm 2 m/s 730 mmHg 67%
    15:00 +31°C° 0.4 mm 2 m/s 730 mmHg 68%
    16:00 +31°C° 0.4 mm 1 m/s 729 mmHg 70%
    17:00 +29°C° 0.3 mm 1 m/s 730 mmHg 78%
    18:00 +27°C° 0.3 mm 1 m/s 730 mmHg 87%
    19:00 +26°C° 0.3 mm 1 m/s 730 mmHg 96%
    20:00 +25°C° 0 mm 1 m/s 730 mmHg 96%
    21:00 +25°C° 0 mm 1 m/s 731 mmHg 96%
    22:00 +25°C° 0 mm 1 m/s 731 mmHg 96%
    23:00 +25°C° 0 mm 1 m/s 731 mmHg 97%

    27 Maio, Segunda-feira

    Tempo Temperatura Precipitação Vento Pressão Humidade
    00:00 +25°C° 0 mm 1 m/s 731 mmHg 97%
    01:00 +25°C° 0 mm 1 m/s 730 mmHg 98%
    02:00 +25°C° 0.3 mm 1 m/s 730 mmHg 98%
    03:00 +25°C° 0.3 mm 1 m/s 730 mmHg 98%
    04:00 +24°C° 0.3 mm 1 m/s 730 mmHg 98%
    05:00 +24°C° 0.2 mm 1 m/s 731 mmHg 98%
    06:00 +25°C° 0.2 mm 1 m/s 731 mmHg 97%
    07:00 +23°C° 0.2 mm 0 m/s 732 mmHg 97%
    08:00 +25°C° 0.1 mm 1 m/s 732 mmHg 94%
    09:00 +26°C° 0.1 mm 1 m/s 732 mmHg 92%
    10:00 +27°C° 0.1 mm 1 m/s 732 mmHg 89%
    11:00 +29°C° 0 mm 1 m/s 732 mmHg 76%
    12:00 +32°C° 0 mm 1 m/s 731 mmHg 63%
    13:00 +35°C° 0 mm 1 m/s 730 mmHg 50%
    14:00 +32°C° 0.3 mm 0 m/s 730 mmHg 52%
    15:00 +31°C° 0.3 mm 0 m/s 729 mmHg 55%
    16:00 +31°C° 0.3 mm 0 m/s 729 mmHg 57%
    17:00 +29°C° 0 mm 0 m/s 730 mmHg 63%
    18:00 +28°C° 0 mm 0 m/s 730 mmHg 68%
    19:00 +28°C° 0 mm 1 m/s 731 mmHg 74%
    20:00 +27°C° 2.9 mm 1 m/s 731 mmHg 81%
    21:00 +26°C° 2.9 mm 1 m/s 731 mmHg 89%
    22:00 +25°C° 2.9 mm 1 m/s 731 mmHg 96%
    23:00 +25°C° 1.2 mm 1 m/s 731 mmHg 96%

    28 Maio, Terça-feira

    Tempo Temperatura Precipitação Vento Pressão Humidade
    00:00 +25°C° 1.2 mm 1 m/s 730 mmHg 96%
    01:00 +25°C° 1.2 mm 1 m/s 730 mmHg 96%
    02:00 +24°C° 0 mm 1 m/s 730 mmHg 96%
    03:00 +24°C° 0 mm 1 m/s 730 mmHg 96%
    04:00 +22°C° 0 mm 0 m/s 730 mmHg 96%
    05:00 +22°C° 0 mm 0 m/s 731 mmHg 95%
    06:00 +23°C° 0 mm 0 m/s 732 mmHg 94%
    07:00 +23°C° 0 mm 0 m/s 732 mmHg 93%
    08:00 +24°C° 0 mm 0 m/s 732 mmHg 88%
    09:00 +27°C° 0 mm 1 m/s 733 mmHg 82%
    10:00 +28°C° 0 mm 1 m/s 733 mmHg 77%
    11:00 +28°C° 0 mm 1 m/s 732 mmHg 76%
    12:00 +28°C° 0 mm 1 m/s 731 mmHg 75%
    13:00 +28°C° 0 mm 1 m/s 730 mmHg 74%
    14:00 +29°C° 0 mm 1 m/s 730 mmHg 73%
    15:00 +29°C° 0 mm 1 m/s 730 mmHg 72%
    16:00 +29°C° 0 mm 1 m/s 730 mmHg 71%
    17:00 +28°C° 0 mm 1 m/s 730 mmHg 77%
    18:00 +26°C° 0 mm 1 m/s 730 mmHg 83%
    19:00 +23°C° 0 mm 0 m/s 731 mmHg 89%
    20:00 +23°C° 0 mm 0 m/s 731 mmHg 89%
    21:00 +25°C° 0 mm 1 m/s 731 mmHg 89%
    22:00 +24°C° 0 mm 1 m/s 731 mmHg 89%
    23:00 +24°C° 0 mm 1 m/s 731 mmHg 88%
    Mostrar mais